Stations météo

réclame
Mon MeteoGroup
Lille, France (7015): Température de l'air & dewpoint: 15.07.2019 17:00:00 - 21.07.2019 17:00:00 (CEST)Lille, France (7015): Température de l'air 5cm: 15.07.2019 17:00:00 - 21.07.2019 17:00:00 (CEST)Lille, France (7015): Température de l'air -20cm & Température de l'air -100cm: 15.07.2019 17:00:00 - 21.07.2019 17:00:00 (CEST)Lille, France (7015): Vitesse du vent & gusts: 15.07.2019 17:00:00 - 21.07.2019 17:00:00 (CEST)Lille, France (7015): Direction du vent: 15.07.2019 17:00:00 - 21.07.2019 17:00:00 (CEST)Lille, France (7015): reduced air pressure: 15.07.2019 17:00:00 - 21.07.2019 17:00:00 (CEST)Lille, France (7015): visibility: 15.07.2019 17:00:00 - 21.07.2019 17:00:00 (CEST)Lille, France (7015): Quantités de précipitations: 15.07.2019 17:00:00 - 21.07.2019 17:00:00 (CEST)
Date & Time tt [°C] td [°C] tt 5cm [°C] tt -20cm [°C] tt -100cm [°C] ff [km/h] ff [knt] fx [km/h] fx [knt] dd ppp [hPa] vv [km] rr [mm]
21.07.2019 17:00:00 24,6 11,2 27,5 24,7 18,5 17 9 32 17 W 1022,5 22 0,0
21.07.2019 16:00:00 24,4 11,0 27,6 24,3 18,5 18 10 37 20 W 1022,5 22 0,0
21.07.2019 15:00:00 24,3 11,3 28,0 23,7 18,5 19 10 36 19 W 1022,4 19 0,0
21.07.2019 14:00:00 24,0 11,0 27,4 22,7 18,5 16 9 40 22 W 1022,1 18 0,0
21.07.2019 13:00:00 23,3 11,7 24,3 21,8 18,5 15 8 37 20 W 1022,0 19 0,0
21.07.2019 12:00:00 21,6 11,3 24,0 20,9 18,5 17 9 39 21 W 1021,7 19 0,0
21.07.2019 11:00:00 20,8 11,4 23,4 20,3 18,5 20 11 32 17 WSW 1021,5 22 0,0
21.07.2019 10:00:00 19,9 12,4 21,1 19,9 18,4 19 11 29 15 WSW 1021,2 24 0,0
21.07.2019 09:00:00 18,1 14,0 17,9 19,8 18,5 13 7 21 11 WSW 1020,7 18 0,0
21.07.2019 08:00:00 16,4 14,2 16,1 19,8 18,5 13 7 19 11 SW 1019,9 20 0,0
21.07.2019 07:00:00 15,6 14,0 14,6 19,9 18,5 10 5 16 9 WSW 1019,3 20 0,0
21.07.2019 06:00:00 15,1 13,5 14,6 20,1 18,5 8 4 16 8 WSW 1018,5 18 0,0
21.07.2019 05:00:00 15,1 13,5 14,5 20,4 18,5 10 6 21 12 WSW 1018,2 21 0,0
21.07.2019 04:00:00 15,6 13,4 14,9 20,7 18,4 13 7 21 11 SW 1017,6 34 0,0
21.07.2019 03:00:00 15,6 12,9 14,6 21,1 18,5 12 6 22 12 SW 1017,4 41 0,0
21.07.2019 02:00:00 16,1 13,0 15,5 21,5 18,4 16 9 25 14 SSW 1016,8 47 0,0
21.07.2019 01:00:00 17,2 13,3 16,5 21,9 18,5 13 7 29 16 SW 1016,6 55 0,0
21.07.2019 00:00:00 18,0 13,5 17,5 22,4 18,4 13 7 27 15 SW 1015,7 60 0,0
20.07.2019 23:00:00 18,7 13,5 18,1 23,0 18,4 16 8 33 18 SW 1015,3 60 0,0
20.07.2019 22:00:00 19,7 12,9 19,0 23,6 18,4 23 12 41 22 WSW 1015,0 60 0,0
20.07.2019 21:00:00 21,4 13,6 21,6 24,2 18,4 26 14 46 25 WSW 1013,9 15 0,0
20.07.2019 20:00:00 22,4 13,2 22,9 24,5 18,4 28 15 53 29 W 1013,2 13 0,0
20.07.2019 19:00:00 23,8 12,7 24,4 24,5 18,4 35 19 51 28 WSW 1012,6 8 0,0
20.07.2019 18:00:00 24,0 13,2 25,6 24,3 18,4 37 20 57 31 WSW 1012,3 9 0,0
20.07.2019 17:00:00 25,1 13,6 26,4 23,9 18,4 35 19 59 32 WSW 1011,6 11 0,0
20.07.2019 16:00:00 25,5 15,8 27,0 23,2 18,4 36 19 59 32 SW 1010,8 16 0,0
20.07.2019 15:00:00 24,6 15,0 23,0 22,6 18,4 34 18 52 28 WSW 1010,3 45 0,0
20.07.2019 14:00:00 23,3 16,1 21,3 22,7 18,4 27 15 49 26 WSW 1010,1 36 0,0
20.07.2019 13:00:00 25,7 15,4 26,9 22,3 18,4 23 12 41 22 SSW 1009,3 27 0,0
20.07.2019 12:00:00 25,0 15,9 27,5 21,5 18,3 20 11 37 20 SSW 1009,2 28 0,0
20.07.2019 11:00:00 23,3 16,1 24,0 20,9 18,4 15 8 24 13 S 1009,3 29 0,0
20.07.2019 10:00:00 20,5 15,3 19,7 20,6 18,4 10 5 18 10 SE 1009,4 32 0,0
20.07.2019 09:00:00 19,7 14,3 20,0 20,5 18,3 8 4 9 5 SE 1009,4 45 0,0
20.07.2019 08:00:00 18,8 14,1 18,4 20,5 18,4 3 2 26 14 NNW 1009,5 52 0,0
20.07.2019 07:00:00 18,2 13,3 17,3 20,6 18,4 5 3 16 9 S 1009,0 55 0,0
20.07.2019 06:00:00 17,3 13,4 16,7 20,8 18,4 10 5 21 11 SE 1008,9 50 0,0
20.07.2019 05:00:00 18,7 13,3 18,2 21,1 18,4 9 5 21 11 SE 1009,2 55 0,0
20.07.2019 04:00:00 18,3 13,8 17,8 21,3 18,4 9 5 13 7 SSE 1009,7 45 0,0
20.07.2019 03:00:00 18,2 13,5 16,5 21,6 18,4 4 2 9 5 S 1010,2 40 0,0
20.07.2019 02:00:00 18,4 13,5 17,8 22,0 18,4 8 4 9 5 ESE 1010,4 6 0,0
20.07.2019 01:00:00 19,8 13,0 17,4 22,4 18,4 9 5 10 6 E 1011,0 60 0,0
20.07.2019 00:00:00 21,3 13,0 19,7 22,7 18,4 6 3 10 5 NNW 1011,7 58 0,0
19.07.2019 23:00:00 22,0 13,1 21,5 23,1 18,3 9 5 18 10 WNW 1012,1 57 0,0
19.07.2019 22:00:00 23,1 13,0 22,2 23,6 18,3 10 5 16 9 WNW 1012,0 60 0,0
19.07.2019 21:00:00 24,9 12,8 24,4 24,0 18,3 6 3 16 8 SSW 1012,0 60 0,0
19.07.2019 20:00:00 25,7 12,2 25,8 24,3 18,4 8 5 24 13 S 1012,1 49 0,0
19.07.2019 19:00:00 25,8 11,5 26,7 24,6 18,4 15 8 31 17 SW 1012,5 44 0,0
19.07.2019 18:00:00 26,0 11,4 27,7 24,4 18,3 13 7 40 22 WSW 1012,7 41 0,0
19.07.2019 17:00:00 26,0 11,0 28,1 24,0 18,3 21 12 34 19 SW 1013,0 17 0,0
19.07.2019 16:00:00 25,6 11,0 28,8 23,4 18,3 16 9 36 19 SSW 1013,4 18 0,0
19.07.2019 15:00:00 24,2 10,8 27,2 22,6 18,3 23 12 35 19 SW 1013,8 21 0,0
19.07.2019 14:00:00 23,2 10,6 25,7 21,9 18,3 18 10 35 19 SW 1014,2 25 0,0
19.07.2019 13:00:00 22,1 11,2 24,3 21,3 18,3 18 10 35 19 S 1014,4 29 0,0
19.07.2019 12:00:00 21,3 12,2 23,5 20,7 18,3 16 9 35 19 SSW 1014,4 34 0,0
19.07.2019 11:00:00 21,2 12,3 24,6 20,1 18,3 13 7 24 13 SSW 1014,6 45 0,0
19.07.2019 10:00:00 19,7 13,2 21,3 19,7 18,3 14 8 26 14 SW 1014,9 37 0,0
19.07.2019 09:00:00 18,0 13,9 17,8 19,6 18,3 14 8 28 15 WSW 1014,6 35 0,0
19.07.2019 08:00:00 16,9 13,8 16,4 19,5 18,3 13 7 22 12 SW 1014,3 35 0,0
19.07.2019 07:00:00 16,3 13,2 16,1 19,6 18,3 8 4 12 7 SW 1013,8 41 0,0
19.07.2019 06:00:00 16,3 13,0 16,0 19,8 18,3 7 4 14 8 SW 1013,8 44 0,0
19.07.2019 05:00:00 16,2 12,6 15,9 19,9 18,3 7 4 17 9 SW 1013,5 48 0,0
19.07.2019 04:00:00 16,3 12,5 16,1 20,1 18,3 10 6 20 11 SW 1013,7 49 0,0
19.07.2019 03:00:00 16,4 12,6 16,1 20,4 18,3 11 6 20 11 SW 1013,7 52 0,0
19.07.2019 02:00:00 16,5 12,5 16,2 20,6 18,3 11 6 24 13 SW 1013,7 55 0,0
19.07.2019 01:00:00 16,9 12,8 16,4 20,9 18,3 13 7 29 16 SW 1013,6 60 0,0
19.07.2019 00:00:00 18,1 12,8 17,7 21,2 18,3 21 12 34 19 WSW 1013,3 60 0,0
18.07.2019 23:00:00 18,8 13,2 18,6 21,5 18,3 18 10 27 15 SW 1013,1 60 0,0
18.07.2019 22:00:00 19,3 13,7 19,1 21,8 18,3 11 6 23 12 SW 1012,9 10 0,0
18.07.2019 21:00:00 20,1 14,0 20,0 22,1 18,3 14 8 29 16 SW 1012,6 59 0,0
18.07.2019 20:00:00 20,7 13,6 21,0 22,3 18,3 21 11 33 18 WSW 1012,4 45 0,0
18.07.2019 19:00:00 21,1 14,7 21,6 22,4 18,3 19 11 31 17 WSW 1012,2 39 0,0
18.07.2019 18:00:00 20,8 14,7 20,8 22,4 18,3 24 13 40 22 WSW 1012,3 42 0,0
18.07.2019 17:00:00 19,9 15,1 20,6 22,5 18,3 18 10 42 23 WSW 1012,6 35 0,0
18.07.2019 16:00:00 21,6 14,5 22,0 22,7 18,3 24 13 42 23 WSW 1012,3 46 0,0
18.07.2019 15:00:00 23,0 11,7 24,2 22,6 18,3 21 11 34 18 WSW 1011,8 27 0,0
18.07.2019 14:00:00 23,1 12,4 25,3 22,2 18,2 19 11 36 19 SW 1011,8 20 0,0
18.07.2019 13:00:00 22,3 12,8 25,0 21,4 18,2 22 12 37 20 WSW 1011,8 18 0,0
18.07.2019 12:00:00 21,7 13,1 23,9 20,8 18,2 16 9 33 18 WSW 1011,8 21 0,0
18.07.2019 11:00:00 20,6 13,1 22,4 20,3 18,2 24 13 39 21 WSW 1012,1 21 0,0
18.07.2019 10:00:00 19,4 13,3 20,0 19,9 18,2 20 11 35 19 SW 1011,7 23 0,0
18.07.2019 09:00:00 17,7 13,8 17,9 19,8 18,2 16 9 28 15 SW 1011,8 24 0,0
18.07.2019 08:00:00 16,8 13,7 15,9 19,9 18,2 13 7 22 12 SW 1011,8 14 0,0
18.07.2019 07:00:00 15,4 13,1 15,0 20,0 18,2 8 5 13 7 SW 1011,9 9 0,0
18.07.2019 06:00:00 15,4 12,9 14,7 20,3 18,2 6 4 11 6 SW 1012,1 8 0,0
18.07.2019 05:00:00 15,4 12,3 14,9 20,6 18,3 5 3 10 6 SSW 1012,0 8 0,0
18.07.2019 04:00:00 15,6 11,4 15,1 20,9 18,2 6 3 12 6 SW 1012,2 13 0,0
18.07.2019 03:00:00 16,3 9,9 15,8 21,3 18,2 9 5 14 7 WSW 1012,7 54 0,0
18.07.2019 02:00:00 16,5 10,1 15,8 21,6 18,2 10 5 14 8 W 1012,7 49 0,0
18.07.2019 01:00:00 17,4 11,7 16,4 22,1 18,2 11 6 16 8 W 1012,6 31 0,0
18.07.2019 00:00:00 18,4 12,2 16,7 22,6 18,2 6 3 22 12 W 1012,5 29 0,0
17.07.2019 23:00:00 19,8 12,1 19,2 23,2 18,3 12 7 29 16 W 1012,7 37 0,0
17.07.2019 22:00:00 22,2 11,3 19,9 23,7 18,2 5 3 19 11 S 1012,6 55 0,0
17.07.2019 21:00:00 23,4 10,8 23,4 24,2 18,3 7 4 13 7 E 1012,1 60 0,0
17.07.2019 20:00:00 24,6 9,3 25,0 24,7 18,2 10 5 14 8 E 1012,2 50 0,0
17.07.2019 19:00:00 25,2 8,6 26,8 25,0 18,2 9 5 16 9 E 1012,7 51 0,0
17.07.2019 18:00:00 25,9 8,4 29,1 25,1 18,2 9 5 18 10 ESE 1013,1 33 0,0
17.07.2019 17:00:00 26,0 8,9 28,6 25,0 18,2 8 4 21 12 SSE 1013,6 50 0,0
17.07.2019 16:00:00 26,4 9,7 31,9 24,1 18,2 10 5 22 12 SE 1014,0 52 0,0
17.07.2019 15:00:00 25,9 9,3 31,0 23,1 18,2 8 4 19 10 E 1014,5 45 0,0
17.07.2019 14:00:00 24,9 10,7 30,3 22,1 18,2 5 3 19 10 SE 1014,9 36 0,0
17.07.2019 13:00:00 23,5 11,2 29,5 20,9 18,2 8 4 20 11 E 1015,5 35 0,0
17.07.2019 12:00:00 22,9 11,0 27,9 19,9 18,2 5 3 14 8 SE 1015,9 26 0,0
17.07.2019 11:00:00 21,2 11,2 25,3 19,0 18,2 7 4 21 12 N 1016,3 19 0,0
17.07.2019 10:00:00 19,1 12,4 22,1 18,5 18,2 3 2 10 5 W 1016,5 14 0,0
17.07.2019 09:00:00 17,1 13,0 18,9 18,2 18,2 5 3 10 5 ESE 1016,5 8 0,0
17.07.2019 08:00:00 14,5 12,4 12,0 18,2 18,3 0 0 5 3 N 1016,5 6 0,0
17.07.2019 07:00:00 12,0 11,5 8,3 18,4 18,3 0 0 5 3 N 1016,4 4,1 0,0
17.07.2019 06:00:00 11,2 10,3 7,0 18,8 18,3 3 2 5 3 E 1016,7 4,4 0,0
17.07.2019 05:00:00 11,9 10,0 8,5 19,1 18,3 5 3 8 4 E 1016,8 5 0,0
17.07.2019 04:00:00 13,5 11,4 9,0 19,5 18,2 7 4 10 5 NNE 1016,9 9 0,0
17.07.2019 03:00:00 14,0 11,3 9,2 20,0 18,3 8 5 13 7 NNE 1017,4 13 0,0
17.07.2019 02:00:00 14,4 10,8 9,1 20,5 18,3 5 3 8 5 NE 1017,6 24 0,0
17.07.2019 01:00:00 15,1 10,5 9,5 21,1 18,3 8 4 10 5 NNE 1017,6 31 0,0
17.07.2019 00:00:00 16,2 10,1 10,1 21,8 18,3 8 4 11 6 NNE 1017,7 49 0,0
16.07.2019 23:00:00 17,3 10,2 12,1 22,5 18,3 4 2 11 6 NNE 1017,7 51 0,0
16.07.2019 22:00:00 19,2 10,2 17,8 23,3 18,3 9 5 14 8 NNW 1017,5 58 0,0
16.07.2019 21:00:00 21,6 9,8 22,5 23,9 18,3 9 5 18 10 NNW 1017,4 41 0,0
16.07.2019 20:00:00 23,0 10,1 27,1 24,2 18,3 9 5 25 14 NNW 1017,4 45 0,0
16.07.2019 19:00:00 22,9 8,9 28,6 24,2 18,3 9 5 24 13 N 1017,6 46 0,0
16.07.2019 18:00:00 23,4 10,4 28,7 23,8 18,3 7 4 23 12 NNW 1017,8 26 0,0
16.07.2019 17:00:00 22,7 10,2 28,7 23,1 18,3 9 5 23 13 NNE 1018,4 22 0,0
16.07.2019 16:00:00 21,9 9,8 27,3 22,1 18,3 7 4 24 13 NW 1018,9 27 0,0
16.07.2019 15:00:00 20,9 10,1 26,4 21,3 18,3 9 5 25 13 NNW 1019,0 38 0,0
16.07.2019 14:00:00 20,1 10,2 24,4 20,6 18,3 14 7 26 14 NNW 1019,4 40 0,0
16.07.2019 13:00:00 19,8 9,4 22,2 19,7 18,3 9 5 19 11 N 1019,8 38 0,0
16.07.2019 12:00:00 18,2 10,1 18,9 19,1 18,3 7 4 19 11 NE 1020,2 37 0,0
16.07.2019 11:00:00 16,6 9,5 19,1 18,8 18,3 8 4 19 10 NE 1020,6 35 0,0
16.07.2019 10:00:00 16,1 9,5 17,1 18,6 18,3 4 2 12 6 E 1020,6 54 0,0
16.07.2019 09:00:00 15,6 9,0 16,2 18,5 18,3 7 4 18 10 NE 1020,7 60 0,0
16.07.2019 08:00:00 15,2 8,9 15,3 18,5 18,3 8 4 18 10 NNW 1020,5 60 0,0
16.07.2019 07:00:00 14,8 9,2 14,6 18,6 18,3 7 4 13 7 N 1020,3 60 0,0
16.07.2019 06:00:00 14,7 9,5 14,6 18,7 18,3 4 2 11 6 ENE 1020,3 59 0,0
16.07.2019 05:00:00 14,7 9,3 14,6 18,8 18,3 4 2 15 8 NNW 1020,1 60 0,0
16.07.2019 04:00:00 14,8 9,4 14,7 19,0 18,4 6 3 14 7 N 1020,3 52 0,0
16.07.2019 03:00:00 15,0 9,6 14,9 19,2 18,3 7 4 14 8 NE 1020,6 60 0,0
16.07.2019 02:00:00 15,2 9,8 15,1 19,3 18,4 8 4 18 10 NNE 1020,9 60 0,0
16.07.2019 01:00:00 15,4 10,0 15,3 19,6 18,4 9 5 22 12 NNE 1021,1 60 0,0
16.07.2019 00:00:00 15,7 10,0 15,6 19,9 18,4 12 6 22 12 N 1021,0 60 0,0
15.07.2019 23:00:00 16,0 10,7 16,0 20,1 18,3 11 6 20 11 NNE 1021,1 60 0,0
15.07.2019 22:00:00 16,3 10,6 16,3 20,5 18,4 14 8 23 12 N 1020,9 60 0,0
15.07.2019 21:00:00 16,5 10,8 16,8 20,9 18,4 14 8 32 17 N 1020,7 59 0,0
15.07.2019 20:00:00 17,1 10,5 17,6 21,2 18,4 23 12 33 18 N 1020,5 42 0,0
15.07.2019 19:00:00 18,4 10,7 19,7 21,2 18,4 21 12 36 19 N 1020,4 26 0,0
15.07.2019 18:00:00 19,7 9,3 21,8 20,8 18,3 11 6 31 17 N 1020,5 38 0,0
15.07.2019 17:00:00 19,9 9,5 22,7 20,1 18,4 12 7 28 15 NNW 1020,9 38 0,0

tt = Température de l'air
td = dewpoint
tt 5cm = Température de l'air 5cm
tt -20cm = Température de l'air -20cm
tt -100cm = Température de l'air -100cm
ff = Vitesse du vent
fx = gusts
dd = Direction du vent
ppp = reduced air pressure
vv = visibility
rr = Quantités de précipitations

stations d'obs. à proximité